datetime,flow
2005-09-30,424.0
2005-10-01,413.0
2005-10-02,492.0
2005-10-03,431.0
2005-10-04,280.0
2005-10-05,290.0
2005-10-06,300.0
2005-10-07,310.0
2005-10-08,320.0
2005-10-09,330.0
2005-10-10,340.0
2005-10-11,360.0
2005-10-12,370.0
2005-10-13,346.0
2005-10-14,333.0
2005-10-15,318.0
2005-10-16,307.0
2005-10-17,289.0
2005-10-18,421.0
2005-10-19,344.0
2005-10-20,306.0
2005-10-21,387.0
2005-10-22,391.0
2005-10-23,359.0
2005-10-24,297.0
2005-10-25,270.0
2005-10-26,234.0
2005-10-27,215.0
2005-10-28,192.0
2005-10-29,125.0
2005-10-30,90.6
2005-10-31,87.4
2005-11-01,227.0
2005-11-02,459.0
2005-11-03,514.0
2005-11-04,535.0
2005-11-05,540.0
2005-11-06,555.0
2005-11-07,570.0
2005-11-08,586.0
2005-11-09,596.0
2005-11-10,600.0
2005-11-11,597.0
2005-11-12,570.0
2005-11-13,582.0
2005-11-14,606.0
2005-11-15,610.0
2005-11-16,620.0
2005-11-17,630.0
2005-11-18,712.0
2005-11-19,688.0
2005-11-20,725.0
2005-11-21,695.0
2005-11-22,681.0
2005-11-23,682.0
2005-11-24,677.0
2005-11-25,662.0
2005-11-26,667.0
2005-11-27,663.0
2005-11-28,667.0
2005-11-29,666.0
2005-11-30,684.0
2005-12-01,684.0
2005-12-02,660.0
2005-12-03,655.0
2005-12-04,647.0
2005-12-05,627.0
2005-12-06,632.0
2005-12-07,616.0
2005-12-08,615.0
2005-12-09,657.0
2005-12-10,635.0
2005-12-11,574.0
2005-12-12,497.0
2005-12-13,479.0
2005-12-14,468.0
2005-12-15,516.0
2005-12-16,653.0
2005-12-17,686.0
2005-12-18,672.0
2005-12-19,635.0
2005-12-20,608.0
2005-12-21,610.0
2005-12-22,620.0
2005-12-23,622.0
2005-12-24,624.0
2005-12-25,629.0
2005-12-26,631.0
2005-12-27,624.0
2005-12-28,626.0
2005-12-29,632.0
2005-12-30,654.0
2005-12-31,699.0
2006-01-01,708.0
2006-01-02,690.0
2006-01-03,661.0
2006-01-04,661.0
2006-01-05,666.0
2006-01-06,686.0
2006-01-07,726.0
2006-01-08,734.0
2006-01-09,672.0
2006-01-10,631.0
2006-01-11,623.0
2006-01-12,621.0
2006-01-13,617.0
2006-01-14,598.0
2006-01-15,581.0
2006-01-16,573.0
2006-01-17,537.0
2006-01-18,533.0
2006-01-19,536.0
2006-01-20,500.0
2006-01-21,500.0
2006-01-22,509.0
2006-01-23,506.0
2006-01-24,533.0
2006-01-25,547.0
2006-01-26,545.0
2006-01-27,513.0
2006-01-28,499.0
2006-01-29,493.0
2006-01-30,478.0
2006-01-31,484.0
2006-02-01,474.0
2006-02-02,503.0
2006-02-03,524.0
2006-02-04,537.0
2006-02-05,550.0
2006-02-06,544.0
2006-02-07,547.0
2006-02-08,557.0
2006-02-09,564.0
2006-02-10,549.0
2006-02-11,517.0
2006-02-12,519.0
2006-02-13,529.0
2006-02-14,521.0
2006-02-15,530.0
2006-02-16,505.0
2006-02-17,465.0
2006-02-18,469.0
2006-02-19,507.0
2006-02-20,511.0
2006-02-21,510.0
2006-02-22,502.0
2006-02-23,506.0
2006-02-24,504.0
2006-02-25,488.0
2006-02-26,487.0
2006-02-27,510.0
2006-02-28,513.0
2006-03-01,455.0
2006-03-02,413.0
2006-03-03,376.0
2006-03-04,330.0
2006-03-05,334.0
2006-03-06,357.0
2006-03-07,351.0
2006-03-08,335.0
2006-03-09,297.0
2006-03-10,302.0
2006-03-11,224.0
2006-03-12,286.0
2006-03-13,288.0
2006-03-14,268.0
2006-03-15,237.0
2006-03-16,177.0
2006-03-17,129.0
2006-03-18,123.0
2006-03-19,123.0
2006-03-20,116.0
2006-03-21,108.0
2006-03-22,104.0
2006-03-23,96.0
2006-03-24,94.5
2006-03-25,99.5
2006-03-26,99.6
2006-03-27,103.0
2006-03-28,91.2
2006-03-29,83.8
2006-03-30,83.4
2006-03-31,76.5
2006-04-01,61.1
2006-04-02,64.4
2006-04-03,70.4
2006-04-04,71.1
2006-04-05,69.7
2006-04-06,62.0
2006-04-07,52.9
2006-04-08,49.3
2006-04-09,50.7
2006-04-10,51.2
2006-04-11,50.4
2006-04-12,51.8
2006-04-13,62.5
2006-04-14,71.8
2006-04-15,80.0
2006-04-16,91.1
2006-04-17,104.0
2006-04-18,121.0
2006-04-19,120.0
2006-04-20,95.2
2006-04-21,103.0
2006-04-22,81.5
2006-04-23,79.9
2006-04-24,83.4
2006-04-25,76.1
2006-04-26,76.3
2006-04-27,78.0
2006-04-28,73.9
2006-04-29,74.5
2006-04-30,72.6
2006-05-01,70.4
2006-05-02,77.2
2006-05-03,84.6
2006-05-04,76.6
2006-05-05,68.3
2006-05-06,68.6
2006-05-07,68.4
2006-05-08,68.1
2006-05-09,65.9
2006-05-10,63.1
2006-05-11,61.1
2006-05-12,56.6
2006-05-13,62.9
2006-05-14,65.0
2006-05-15,83.7
2006-05-16,100.0
2006-05-17,74.5
2006-05-18,61.5
2006-05-19,60.9
2006-05-20,57.1
2006-05-21,49.1
2006-05-22,47.8
2006-05-23,53.1
2006-05-24,55.0
2006-05-25,50.6
2006-05-26,59.1
2006-05-27,66.1
2006-05-28,66.8
2006-05-29,63.4
2006-05-30,63.4
2006-05-31,67.5
2006-06-01,75.8
2006-06-02,142.0
2006-06-03,79.0
2006-06-04,77.0
2006-06-05,74.0
2006-06-06,81.6
2006-06-07,81.4
2006-06-08,80.6
2006-06-09,75.7
2006-06-10,77.4
2006-06-11,78.6
2006-06-12,70.5
2006-06-13,78.3
2006-06-14,68.9
2006-06-15,57.3
2006-06-16,54.4
2006-06-17,49.8
2006-06-18,48.5
2006-06-19,44.9
2006-06-20,39.8
2006-06-21,34.7
2006-06-22,26.8
2006-06-23,19.3
2006-06-24,11.0
2006-06-25,0.2
2006-06-26,0.0
2006-06-27,45.1
2006-06-28,91.7
2006-06-29,235.0
2006-06-30,619.0
2006-07-01,419.0
2006-07-02,299.0
2006-07-03,204.0
2006-07-04,127.0
2006-07-05,69.5
2006-07-06,156.0
2006-07-07,2100.0
2006-07-08,1570.0
2006-07-09,3840.0
2006-07-10,1920.0
2006-07-11,1940.0
2006-07-12,1390.0
2006-07-13,1360.0
2006-07-14,1830.0
2006-07-15,434.0
2006-07-16,282.0
2006-07-17,126.0
2006-07-18,28.7
2006-07-19,11.2
2006-07-20,78.3
2006-07-21,10.5
2006-07-22,3.83
2006-07-23,8.55
2006-07-24,3.44
2006-07-25,1.5
2006-07-26,0.1
2006-07-27,129.0
2006-07-28,1040.0
2006-07-29,2110.0
2006-07-30,1430.0
2006-07-31,3990.0
2006-08-01,4850.0
2006-08-02,3320.0
2006-08-03,2860.0
2006-08-04,4150.0
2006-08-05,4300.0
2006-08-06,1650.0
2006-08-07,4080.0
2006-08-08,6590.0
2006-08-09,3880.0
2006-08-10,5240.0
2006-08-11,6890.0
2006-08-12,3620.0
2006-08-13,1860.0
2006-08-14,1700.0
2006-08-15,2530.0
2006-08-16,2510.0
2006-08-17,3030.0
2006-08-18,3250.0
2006-08-19,2690.0
2006-08-20,3280.0
2006-08-21,1930.0
2006-08-22,2430.0
2006-08-23,3120.0
2006-08-24,4350.0
2006-08-25,4160.0
2006-08-26,4560.0
2006-08-27,2230.0
2006-08-28,1720.0
2006-08-29,1540.0
2006-08-30,852.0
2006-08-31,806.0
2006-09-01,391.0
2006-09-02,346.0
2006-09-03,442.0
2006-09-04,350.0
2006-09-05,235.0
2006-09-06,135.0
2006-09-07,372.0
2006-09-08,630.0
2006-09-09,394.0
2006-09-10,900.0
2006-09-11,1130.0
2006-09-12,888.0
2006-09-13,597.0
2006-09-14,561.0
2006-09-15,432.0
2006-09-16,310.0
2006-09-17,200.0
2006-09-18,126.0
2006-09-19,33.2
2006-09-20,17.7
2006-09-21,25.6
2006-09-22,24.1
2006-09-23,24.4
2006-09-24,18.3
2006-09-25,40.0
2006-09-26,79.7
2006-09-27,37.0
2006-09-28,17.1
2006-09-29,15.3
2006-09-30,7.62
2006-10-01,3.49
2006-10-02,2.88
2006-10-03,3.31
2006-10-04,2.44
2006-10-05,0.0
2006-10-06,0.0
2006-10-07,0.0
2006-10-08,0.0
2006-10-09,1230.0
2006-10-10,950.0
2006-10-11,945.0
2006-10-12,1560.0
2006-10-13,1180.0
2006-10-14,1140.0
2006-10-15,1180.0
2006-10-16,1190.0
2006-10-17,1130.0
2006-10-18,1080.0
2006-10-19,1120.0
2006-10-20,1100.0
2006-10-21,1090.0
2006-10-22,1090.0
2006-10-23,1260.0
2006-10-24,1080.0
2006-10-25,942.0
2006-10-26,965.0
2006-10-27,946.0
2006-10-28,949.0
2006-10-29,868.0
2006-10-30,1090.0
2006-10-31,1060.0
2006-11-01,1070.0
2006-11-02,1200.0
2006-11-03,1200.0
2006-11-04,1170.0
2006-11-05,1130.0
2006-11-06,1180.0
2006-11-07,1230.0
2006-11-08,1280.0
2006-11-09,1370.0
2006-11-10,1370.0
2006-11-11,1370.0
2006-11-12,1290.0
2006-11-13,1210.0
2006-11-14,1210.0
2006-11-15,1180.0
2006-11-16,1190.0
2006-11-17,1180.0
2006-11-18,1170.0
2006-11-19,1120.0
2006-11-20,1110.0
2006-11-21,1150.0
2006-11-22,1140.0
2006-11-23,1120.0
2006-11-24,1100.0
2006-11-25,1120.0
2006-11-26,1080.0
2006-11-27,1040.0
2006-11-28,1070.0
2006-11-29,1020.0
2006-11-30,978.0
2006-12-01,987.0
2006-12-02,938.0
2006-12-03,967.0
2006-12-04,886.0
2006-12-05,827.0
2006-12-06,822.0
2006-12-07,808.0
2006-12-08,795.0
2006-12-09,741.0
2006-12-10,759.0
2006-12-11,831.0
2006-12-12,881.0
2006-12-13,881.0
2006-12-14,909.0
2006-12-15,920.0
2006-12-16,909.0
2006-12-17,925.0
2006-12-18,859.0
2006-12-19,903.0
2006-12-20,903.0
2006-12-21,872.0
2006-12-22,892.0
2006-12-23,847.0
2006-12-24,803.0
2006-12-25,731.0
2006-12-26,743.0
2006-12-27,748.0
2006-12-28,751.0
2006-12-29,741.0
2006-12-30,747.0
2006-12-31,693.0
2007-01-01,769.0
2007-01-02,731.0
2007-01-03,730.0
2007-01-04,719.0
2007-01-05,759.0
2007-01-06,741.0
2007-01-07,719.0
2007-01-08,838.0
2007-01-09,724.0
2007-01-10,675.0
2007-01-11,637.0
2007-01-12,622.0
2007-01-13,684.0
2007-01-14,680.0
2007-01-15,680.0
2007-01-16,691.0
2007-01-17,712.0
2007-01-18,631.0
2007-01-19,595.0
2007-01-20,633.0
2007-01-21,612.0
2007-01-22,606.0
2007-01-23,621.0
2007-01-24,633.0
2007-01-25,625.0
2007-01-26,677.0
2007-01-27,661.0
2007-01-28,673.0
2007-01-29,651.0
2007-01-30,699.0
2007-01-31,663.0
2007-02-01,614.0
2007-02-02,613.0
2007-02-03,606.0
2007-02-04,653.0
2007-02-05,641.0
2007-02-06,611.0
2007-02-07,662.0
2007-02-08,617.0
2007-02-09,542.0
2007-02-10,582.0
2007-02-11,598.0
2007-02-12,645.0
2007-02-13,657.0
2007-02-14,669.0
2007-02-15,610.0
2007-02-16,681.0
2007-02-17,613.0
2007-02-18,668.0
2007-02-19,680.0
2007-02-20,641.0
2007-02-21,629.0
2007-02-22,633.0
2007-02-23,653.0
2007-02-24,645.0
2007-02-25,679.0
2007-02-26,649.0
2007-02-27,594.0
2007-02-28,566.0
2007-03-01,570.0
2007-03-02,596.0
2007-03-03,588.0
2007-03-04,607.0
2007-03-05,590.0
2007-03-06,578.0
2007-03-07,550.0
2007-03-08,483.0
2007-03-09,452.0
2007-03-10,419.0
2007-03-11,488.0
2007-03-12,522.0
2007-03-13,555.0
2007-03-14,483.0
2007-03-15,441.0
2007-03-16,449.0
2007-03-17,485.0
2007-03-18,615.0
2007-03-19,684.0
2007-03-20,662.0
2007-03-21,746.0
2007-03-22,869.0
2007-03-23,909.0
2007-03-24,941.0
2007-03-25,1040.0
2007-03-26,1130.0
2007-03-27,1070.0
2007-03-28,1040.0
2007-03-29,996.0
2007-03-30,938.0
2007-03-31,937.0
2007-04-01,791.0
2007-04-02,808.0
2007-04-03,784.0
2007-04-04,726.0
2007-04-05,740.0
2007-04-06,661.0
2007-04-07,758.0
2007-04-08,846.0
2007-04-09,827.0
2007-04-10,757.0
2007-04-11,761.0
2007-04-12,776.0
2007-04-13,786.0
2007-04-14,792.0
2007-04-15,1020.0
2007-04-16,743.0
2007-04-17,723.0
2007-04-18,887.0
2007-04-19,777.0
2007-04-20,642.0
2007-04-21,454.0
2007-04-22,548.0
2007-04-23,730.0
2007-04-24,710.0
2007-04-25,659.0
2007-04-26,420.0
2007-04-27,446.0
2007-04-28,386.0
2007-04-29,305.0
2007-04-30,315.0
2007-05-01,380.0
2007-05-02,347.0
2007-05-03,411.0
2007-05-04,906.0
2007-05-05,2020.0
2007-05-06,1750.0
2007-05-07,1910.0
2007-05-08,1900.0
2007-05-09,1740.0
2007-05-10,1800.0
2007-05-11,1690.0
2007-05-12,1740.0
2007-05-13,1700.0
2007-05-14,1790.0
2007-05-15,1660.0
2007-05-16,1710.0
2007-05-17,1900.0
2007-05-18,2070.0
2007-05-19,2010.0
2007-05-20,2020.0
2007-05-21,2460.0
2007-05-22,2390.0
2007-05-23,2250.0
2007-05-24,2130.0
2007-05-25,1950.0
2007-05-26,1860.0
2007-05-27,1860.0
2007-05-28,1810.0
2007-05-29,1740.0
2007-05-30,1670.0
2007-05-31,1540.0
2007-06-01,1410.0
2007-06-02,1320.0
2007-06-03,1210.0
2007-06-04,1070.0
2007-06-05,917.0
2007-06-06,819.0
2007-06-07,917.0
2007-06-08,941.0
2007-06-09,800.0
2007-06-10,720.0
2007-06-11,691.0
2007-06-12,648.0
2007-06-13,635.0
2007-06-14,576.0
2007-06-15,459.0
2007-06-16,424.0
2007-06-17,342.0
2007-06-18,410.0
2007-06-19,477.0
2007-06-20,414.0
2007-06-21,327.0
2007-06-22,250.0
2007-06-23,183.0
2007-06-24,124.0
2007-06-25,101.0
2007-06-26,96.1
2007-06-27,89.3
2007-06-28,76.5
2007-06-29,69.1
2007-06-30,55.0
2007-07-01,54.8
2007-07-02,45.7
2007-07-03,15.9
2007-07-04,1.44
2007-07-05,19.7
2007-07-06,34.2
2007-07-07,113.0
2007-07-08,160.0
2007-07-09,101.0
2007-07-10,72.4
2007-07-11,65.9
2007-07-12,47.1
2007-07-13,23.1
2007-07-14,9.43
2007-07-15,2.69
2007-07-16,0.0
2007-07-17,0.0
2007-07-18,0.0
2007-07-19,0.0
2007-07-20,0.0
2007-07-21,0.0
2007-07-22,0.0
2007-07-23,0.0
2007-07-24,0.0
2007-07-25,33.6
2007-07-26,44.1
2007-07-27,107.0
2007-07-28,77.5
2007-07-29,18.9
2007-07-30,1.19
2007-07-31,13.2
2007-08-01,21.4
2007-08-02,41.0
2007-08-03,93.7
2007-08-04,114.0
2007-08-05,81.1
2007-08-06,72.2
2007-08-07,301.0
2007-08-08,318.0
2007-08-09,284.0
2007-08-10,155.0
2007-08-11,133.0
2007-08-12,110.0
2007-08-13,86.8
2007-08-14,75.5
2007-08-15,24.5
2007-08-16,18.5
2007-08-17,12.4
2007-08-18,3.95
2007-08-19,0.0
2007-08-20,0.0
2007-08-21,0.0
2007-08-22,0.0
2007-08-23,0.0
2007-08-24,10.6
2007-08-25,4.88
2007-08-26,14.2
2007-08-27,6.7
2007-08-28,2.13
2007-08-29,4.26
2007-08-30,48.9
2007-08-31,109.0
2007-09-01,152.0
2007-09-02,298.0
2007-09-03,211.0
2007-09-04,279.0
2007-09-05,214.0
2007-09-06,137.0
2007-09-07,118.0
2007-09-08,136.0
2007-09-09,154.0
2007-09-10,135.0
2007-09-11,102.0
2007-09-12,97.9
2007-09-13,131.0
2007-09-14,91.4
2007-09-15,35.0
2007-09-16,35.0
2007-09-17,32.6
2007-09-18,27.5
2007-09-19,26.0
2007-09-20,32.0
2007-09-21,40.0
2007-09-22,106.0
2007-09-23,137.0
2007-09-24,183.0
2007-09-25,200.0
2007-09-26,190.0
2007-09-27,182.0
2007-09-28,120.0
2007-09-29,99.3
2007-09-30,81.9
2007-10-01,72.2
2007-10-02,43.8
2007-10-03,40.1
2007-10-04,31.8
2007-10-05,31.3
2007-10-06,21.3
2007-10-07,35.3
2007-10-08,42.1
2007-10-09,39.5
2007-10-10,58.7
2007-10-11,146.0
2007-10-12,81.2
2007-10-13,68.6
2007-10-14,70.5
2007-10-15,71.6
2007-10-16,73.9
2007-10-17,72.3
2007-10-18,61.0
2007-10-19,49.0
2007-10-20,76.6
2007-10-21,71.8
2007-10-22,78.7
2007-10-23,80.7
2007-10-24,68.6
2007-10-25,53.4
2007-10-26,54.7
2007-10-27,31.6
2007-10-28,35.9
2007-10-29,38.3
2007-10-30,36.9
2007-10-31,33.7
2007-11-01,75.3
2007-11-02,216.0
2007-11-03,221.0
2007-11-04,275.0
2007-11-05,290.0
2007-11-06,281.0
2007-11-07,286.0
2007-11-08,285.0
2007-11-09,301.0
2007-11-10,388.0
2007-11-11,460.0
2007-11-12,483.0
2007-11-13,476.0
2007-11-14,498.0
2007-11-15,500.0
2007-11-16,514.0
2007-11-17,544.0
2007-11-18,566.0
2007-11-19,586.0
2007-11-20,610.0
2007-11-21,618.0
2007-11-22,622.0
2007-11-23,617.0
2007-11-24,587.0
2007-11-25,558.0
2007-11-26,580.0
2007-11-27,625.0
2007-11-28,595.0
2007-11-29,648.0
2007-11-30,657.0
2007-12-01,731.0
2007-12-02,761.0
2007-12-03,936.0
2007-12-04,820.0
2007-12-05,716.0
2007-12-06,700.0
2007-12-07,813.0
2007-12-08,834.0
2007-12-09,871.0
2007-12-10,866.0
2007-12-11,894.0
2007-12-12,940.0
2007-12-13,1010.0
2007-12-14,1000.0
2007-12-15,908.0
2007-12-16,885.0
2007-12-17,866.0
2007-12-18,820.0
2007-12-19,783.0
2007-12-20,782.0
2007-12-21,758.0
2007-12-22,756.0
2007-12-23,728.0
2007-12-24,737.0
2007-12-25,705.0
2007-12-26,710.0
2007-12-27,710.0
2007-12-28,682.0
2007-12-29,686.0
2007-12-30,685.0
2007-12-31,627.0
2008-01-01,585.0
2008-01-02,661.0
2008-01-03,696.0
2008-01-04,703.0
2008-01-05,703.0
2008-01-06,730.0
2008-01-07,811.0
2008-01-08,855.0
2008-01-09,783.0
2008-01-10,855.0
2008-01-11,851.0
2008-01-12,769.0
2008-01-13,707.0
2008-01-14,749.0
2008-01-15,767.0
2008-01-16,795.0
2008-01-17,789.0
2008-01-18,796.0
2008-01-19,713.0
2008-01-20,672.0
2008-01-21,652.0
2008-01-22,583.0
2008-01-23,617.0
2008-01-24,653.0
2008-01-25,660.0
2008-01-26,693.0
2008-01-27,783.0
2008-01-28,754.0
2008-01-29,744.0
2008-01-30,807.0
2008-01-31,776.0
2008-02-01,845.0
2008-02-02,764.0
2008-02-03,657.0
2008-02-04,654.0
2008-02-05,720.0
2008-02-06,693.0
2008-02-07,724.0
2008-02-08,824.0
2008-02-09,843.0
2008-02-10,689.0
2008-02-11,708.0
2008-02-12,908.0
2008-02-13,865.0
2008-02-14,849.0
2008-02-15,986.0
2008-02-16,1100.0
2008-02-17,1070.0
2008-02-18,1050.0
2008-02-19,1100.0
2008-02-20,1210.0
2008-02-21,1060.0
2008-02-22,1110.0
2008-02-23,1330.0
2008-02-24,1200.0
2008-02-25,1340.0
2008-02-26,918.0
2008-02-27,1310.0
2008-02-28,1580.0
2008-02-29,1370.0
2008-03-01,1470.0
2008-03-02,1260.0
2008-03-03,1440.0
2008-03-04,1770.0
2008-03-05,1460.0
2008-03-06,1850.0
2008-03-07,2020.0
2008-03-08,1530.0
2008-03-09,1120.0
2008-03-10,977.0
2008-03-11,656.0
2008-03-12,674.0
2008-03-13,1020.0
2008-03-14,1610.0
2008-03-15,1670.0
2008-03-16,1560.0
2008-03-17,1760.0
2008-03-18,1680.0
2008-03-19,1520.0
2008-03-20,1760.0
2008-03-21,1370.0
2008-03-22,1240.0
2008-03-23,1290.0
2008-03-24,1270.0
2008-03-25,907.0
2008-03-26,1840.0
2008-03-27,1590.0
2008-03-28,1580.0
2008-03-29,2170.0
2008-03-30,2820.0
2008-03-31,3130.0
2008-04-01,2780.0
2008-04-02,2950.0
2008-04-03,3430.0
2008-04-04,2770.0
2008-04-05,2290.0
2008-04-06,2350.0
2008-04-07,2650.0
2008-04-08,2260.0
2008-04-09,2360.0
2008-04-10,2380.0
2008-04-11,2890.0
2008-04-12,2470.0
2008-04-13,2450.0
2008-04-14,2160.0
2008-04-15,2260.0
2008-04-16,2120.0
2008-04-17,2040.0
2008-04-18,2190.0
2008-04-19,2190.0
2008-04-20,2310.0
2008-04-21,2380.0
2008-04-22,2330.0
2008-04-23,2270.0
2008-04-24,2310.0
2008-04-25,2380.0
2008-04-26,2440.0
2008-04-27,2600.0
2008-04-28,2910.0
2008-04-29,3440.0
2008-04-30,3500.0
2008-05-01,3320.0
2008-05-02,3250.0
2008-05-03,3120.0
2008-05-04,3070.0
2008-05-05,3240.0
2008-05-06,3360.0
2008-05-07,3400.0
2008-05-08,3290.0
2008-05-09,3180.0
2008-05-10,3320.0
2008-05-11,3550.0
2008-05-12,3700.0
2008-05-13,3620.0
2008-05-14,3420.0
2008-05-15,3290.0
2008-05-16,3420.0
2008-05-17,3240.0
2008-05-18,3140.0
2008-05-19,3380.0
2008-05-20,2640.0
2008-05-21,2390.0
2008-05-22,2340.0
2008-05-23,3020.0
2008-05-24,3810.0
2008-05-25,4190.0
2008-05-26,4630.0
2008-05-27,4730.0
2008-05-28,4440.0
2008-05-29,3950.0
2008-05-30,3260.0
2008-05-31,3150.0
2008-06-01,2940.0
2008-06-02,3570.0
2008-06-03,3730.0
2008-06-04,3770.0
2008-06-05,3750.0
2008-06-06,3660.0
2008-06-07,3730.0
2008-06-08,3660.0
2008-06-09,3780.0
2008-06-10,3910.0
2008-06-11,4150.0
2008-06-12,4060.0
2008-06-13,2630.0
2008-06-14,2420.0
2008-06-15,2350.0
2008-06-16,2310.0
2008-06-17,2170.0
2008-06-18,2100.0
2008-06-19,1810.0
2008-06-20,1630.0
2008-06-21,1370.0
2008-06-22,1380.0
2008-06-23,1670.0
2008-06-24,1870.0
2008-06-25,1990.0
2008-06-26,1780.0
2008-06-27,1580.0
2008-06-28,1400.0
2008-06-29,1130.0
2008-06-30,1300.0
2008-07-01,1530.0
2008-07-02,1610.0
2008-07-03,1480.0
2008-07-04,1610.0
2008-07-05,1910.0
2008-07-06,1610.0
2008-07-07,1150.0
2008-07-08,778.0
2008-07-09,647.0
2008-07-10,699.0
2008-07-11,608.0
2008-07-12,591.0
2008-07-13,688.0
2008-07-14,794.0
2008-07-15,907.0
2008-07-16,883.0
2008-07-17,680.0
2008-07-18,525.0
2008-07-19,549.0
2008-07-20,736.0
2008-07-21,729.0
2008-07-22,636.0
2008-07-23,1360.0
2008-07-24,749.0
2008-07-25,1150.0
2008-07-26,1140.0
2008-07-27,1020.0
2008-07-28,687.0
2008-07-29,586.0
2008-07-30,380.0
2008-07-31,251.0
2008-08-01,221.0
2008-08-02,213.0
2008-08-03,191.0
2008-08-04,174.0
2008-08-05,176.0
2008-08-06,608.0
2008-08-07,378.0
2008-08-08,587.0
2008-08-09,420.0
2008-08-10,333.0
2008-08-11,698.0
2008-08-12,411.0
2008-08-13,300.0
2008-08-14,249.0
2008-08-15,210.0
2008-08-16,283.0
2008-08-17,487.0
2008-08-18,541.0
2008-08-19,664.0
2008-08-20,441.0
2008-08-21,396.0
2008-08-22,420.0
2008-08-23,346.0
2008-08-24,305.0
2008-08-25,276.0
2008-08-26,267.0
2008-08-27,240.0
2008-08-28,220.0
2008-08-29,210.0
2008-08-30,200.0
2008-08-31,180.0
2008-09-01,330.0
2008-09-02,350.0
2008-09-03,419.0
2008-09-04,468.0
2008-09-05,426.0
2008-09-06,325.0
2008-09-07,260.0
2008-09-08,186.0
2008-09-09,130.0
2008-09-10,221.0
2008-09-11,136.0
2008-09-12,164.0
2008-09-13,175.0
2008-09-14,158.0
2008-09-15,129.0
2008-09-16,99.9
2008-09-17,76.5
2008-09-18,65.7
2008-09-19,55.9
2008-09-20,57.6
2008-09-21,48.6
2008-09-22,41.2
2008-09-23,76.2
2008-09-24,60.2
2008-09-25,60.5
2008-09-26,44.3
2008-09-27,45.7
2008-09-28,56.2
2008-09-29,54.1
2008-09-30,48.3
2008-10-01,41.7
2008-10-02,41.5
2008-10-03,40.1
2008-10-04,36.6
2008-10-05,53.6
2008-10-06,79.3
2008-10-07,490.0
2008-10-08,498.0
2008-10-09,460.0
2008-10-10,369.0
2008-10-11,353.0
2008-10-12,375.0
2008-10-13,406.0
2008-10-14,721.0
2008-10-15,610.0
2008-10-16,586.0
2008-10-17,611.0
2008-10-18,452.0
2008-10-19,435.0
2008-10-20,401.0
2008-10-21,347.0
2008-10-22,261.0
2008-10-23,214.0
2008-10-24,209.0
2008-10-25,203.0
2008-10-26,188.0
2008-10-27,185.0
2008-10-28,164.0
2008-10-29,151.0
2008-10-30,93.4
2008-10-31,79.7
2008-11-01,149.0
2008-11-02,381.0
2008-11-03,471.0
2008-11-04,458.0
2008-11-05,435.0
2008-11-06,387.0
2008-11-07,419.0
2008-11-08,400.0
2008-11-09,446.0
2008-11-10,455.0
2008-11-11,476.0
2008-11-12,492.0
2008-11-13,502.0
2008-11-14,502.0
2008-11-15,451.0
2008-11-16,496.0
2008-11-17,601.0
2008-11-18,567.0
2008-11-19,558.0
2008-11-20,512.0
2008-11-21,475.0
2008-11-22,473.0
2008-11-23,486.0
2008-11-24,508.0
2008-11-25,544.0
2008-11-26,536.0
2008-11-27,528.0
2008-11-28,516.0
2008-11-29,537.0
2008-11-30,567.0
2008-12-01,546.0
2008-12-02,539.0
2008-12-03,538.0
2008-12-04,549.0
2008-12-05,530.0
2008-12-06,505.0
2008-12-07,506.0
2008-12-08,498.0
2008-12-09,536.0
2008-12-10,551.0
2008-12-11,539.0
2008-12-12,531.0
2008-12-13,518.0
2008-12-14,493.0
2008-12-15,493.0
2008-12-16,511.0
2008-12-17,531.0
2008-12-18,558.0
2008-12-19,611.0
2008-12-20,677.0
2008-12-21,766.0
2008-12-22,757.0
2008-12-23,741.0
2008-12-24,765.0
2008-12-25,775.0
2008-12-26,765.0
2008-12-27,731.0
2008-12-28,711.0
2008-12-29,695.0
2008-12-30,684.0
2008-12-31,707.0
2009-01-01,713.0
2009-01-02,755.0
2009-01-03,751.0
2009-01-04,749.0
2009-01-05,702.0
2009-01-06,623.0
2009-01-07,580.0
2009-01-08,611.0
2009-01-09,748.0
2009-01-10,755.0
2009-01-11,787.0
2009-01-12,789.0
2009-01-13,745.0
2009-01-14,759.0
2009-01-15,780.0
2009-01-16,777.0
2009-01-17,777.0
2009-01-18,751.0
2009-01-19,742.0
2009-01-20,743.0
2009-01-21,744.0
2009-01-22,745.0
2009-01-23,726.0
2009-01-24,727.0
2009-01-25,663.0
2009-01-26,661.0
2009-01-27,667.0
2009-01-28,671.0
2009-01-29,673.0
2009-01-30,694.0
2009-01-31,723.0
2009-02-01,705.0
2009-02-02,673.0
2009-02-03,650.0
2009-02-04,642.0
2009-02-05,632.0
2009-02-06,681.0
2009-02-07,689.0
2009-02-08,689.0
2009-02-09,692.0
2009-02-10,677.0
2009-02-11,679.0
2009-02-12,679.0
2009-02-13,668.0
2009-02-14,677.0
2009-02-15,670.0
2009-02-16,676.0
2009-02-17,681.0
2009-02-18,651.0
2009-02-19,682.0
2009-02-20,667.0
2009-02-21,707.0
2009-02-22,703.0
2009-02-23,756.0
2009-02-24,791.0
2009-02-25,783.0
2009-02-26,632.0
2009-02-27,571.0
2009-02-28,611.0
2009-03-01,654.0
2009-03-02,639.0
2009-03-03,775.0
2009-03-04,659.0
2009-03-05,597.0
2009-03-06,711.0
2009-03-07,754.0
2009-03-08,695.0
2009-03-09,679.0
2009-03-10,605.0
2009-03-11,644.0
2009-03-12,680.0
2009-03-13,746.0
2009-03-14,607.0
2009-03-15,611.0
2009-03-16,665.0
2009-03-17,660.0
2009-03-18,494.0
2009-03-19,555.0
2009-03-20,493.0
2009-03-21,470.0
2009-03-22,380.0
2009-03-23,369.0
2009-03-24,353.0
2009-03-25,341.0
2009-03-26,383.0
2009-03-27,616.0
2009-03-28,959.0
2009-03-29,1030.0
2009-03-30,1090.0
2009-03-31,1170.0
2009-04-01,1210.0
2009-04-02,1270.0
2009-04-03,1380.0
2009-04-04,1180.0
2009-04-05,1050.0
2009-04-06,1200.0
2009-04-07,742.0
2009-04-08,609.0
2009-04-09,559.0
2009-04-10,506.0
2009-04-11,509.0
2009-04-12,498.0
2009-04-13,504.0
2009-04-14,562.0
2009-04-15,635.0
2009-04-16,721.0
2009-04-17,786.0
2009-04-18,922.0
2009-04-19,1040.0
2009-04-20,1350.0
2009-04-21,1110.0
2009-04-22,1050.0
2009-04-23,892.0
2009-04-24,822.0
2009-04-25,806.0
2009-04-26,1240.0
2009-04-27,1730.0
2009-04-28,2210.0
2009-04-29,2440.0
2009-04-30,2360.0
2009-05-01,2380.0
2009-05-02,2340.0
2009-05-03,2500.0
2009-05-04,2950.0
2009-05-05,2870.0
2009-05-06,2950.0
2009-05-07,2870.0
2009-05-08,2850.0
2009-05-09,2900.0
2009-05-10,3300.0
2009-05-11,3750.0
2009-05-12,3590.0
2009-05-13,3530.0
2009-05-14,3520.0
2009-05-15,3940.0
2009-05-16,3880.0
2009-05-17,3950.0
2009-05-18,3780.0
2009-05-19,3430.0
2009-05-20,3110.0
2009-05-21,2950.0
2009-05-22,2830.0
2009-05-23,2990.0
2009-05-24,3210.0
2009-05-25,3330.0
2009-05-26,3320.0
2009-05-27,3550.0
2009-05-28,3420.0
2009-05-29,3220.0
2009-05-30,3000.0
2009-05-31,1890.0
2009-06-01,987.0
2009-06-02,759.0
2009-06-03,778.0
2009-06-04,1790.0
2009-06-05,2290.0
2009-06-06,2310.0
2009-06-07,2350.0
2009-06-08,2250.0
2009-06-09,2200.0
2009-06-10,2150.0
2009-06-11,2090.0
2009-06-12,2330.0
2009-06-13,2360.0
2009-06-14,2170.0
2009-06-15,1570.0
2009-06-16,1460.0
2009-06-17,1350.0
2009-06-18,1170.0
2009-06-19,928.0
2009-06-20,645.0
2009-06-21,451.0
2009-06-22,401.0
2009-06-23,377.0
2009-06-24,253.0
2009-06-25,204.0
2009-06-26,190.0
2009-06-27,168.0
2009-06-28,191.0
2009-06-29,204.0
2009-06-30,256.0
2009-07-01,295.0
2009-07-02,444.0
2009-07-03,593.0
2009-07-04,611.0
2009-07-05,579.0
2009-07-06,491.0
2009-07-07,367.0
2009-07-08,282.0
2009-07-09,211.0
2009-07-10,187.0
2009-07-11,164.0
2009-07-12,141.0
2009-07-13,115.0
2009-07-14,92.6
2009-07-15,69.8
2009-07-16,70.7
2009-07-17,63.3
2009-07-18,56.6
2009-07-19,46.2
2009-07-20,37.8
2009-07-21,28.5
2009-07-22,24.6
2009-07-23,18.8
2009-07-24,18.4
2009-07-25,70.3
2009-07-26,61.6
2009-07-27,59.9
2009-07-28,81.7
2009-07-29,51.3
2009-07-30,60.0
2009-07-31,49.1
2009-08-01,63.7
2009-08-02,51.5
2009-08-03,36.0
2009-08-04,41.1
2009-08-05,19.5
2009-08-06,20.1
2009-08-07,14.2